Notices

What's New in latest Release from April 7th, 2021:

- Updated Glossary, including Speed of Maximum Gust, and Total Hourly Precipitation

- Updated national and regional climate services offices contacts and prices information

- Addition of station inventory lists for 1981-2010, 1971-2000, and 1961-1990 Normals.

If you haven't already, please take our survey and provide feedback about our website: https://eccc.sondage-survey.ca/f/LanguageSelection.aspx?s=442ca660-fcf1-47c0-95a9-59707d6fd709

Hourly Data Report for December 12, 2019

SAINT JOHN A
NEW BRUNSWICK
Current Station Operator: NAVCAN

45°18'58.000" N
65°53'24.000" W
108.80 m
8104901
71609
YSJ

Download Data

Hourly Data (December 2019)
Hourly Data Report for December 12, 2019
TIME
LST
Temp Definition
°C
Dew Point Definition
°C
Rel Hum Definition
%
Precip. Amount Definition
mm

Wind Dir Definition
10's deg

Wind Spd Definition
km/h
Visibility Definition
km
Stn Press Definition
kPa
Hmdx Definition


Wind Chill Definition


Weather Definition


00:00 -11.5 -12.4 93   0 1 24.1 100.93   -12 LegendNANA
01:00 -11.7 -12.7 92   36 1 24.1 100.89   -12 LegendNANA
02:00 -11.1 -12.3 91   5 4 24.1 100.88   -14 Clear
03:00 -11.5 -12.7 91   0 1 24.1 100.94   -12 LegendNANA
04:00 -11.1 -12.3 91   36 3 24.1 100.98   -13 LegendNANA
05:00 -6.9 -8.2 91   28 16 24.1 101.10   -13 Mainly Clear
06:00 -6.9 -10.2 77   28 20 24.1 101.19   -14 LegendNANA
07:00 -7.0 -11.8 69   29 19 24.1 101.29   -14 LegendNANA
08:00 -7.4 -12.3 68   28 22 24.1 101.45   -15 Mainly Clear
09:00 -7.1 -11.8 69   28 16 24.1 101.60   -13 LegendNANA
10:00 -6.3 -11.9 65   27 18 24.1 101.77   -13 LegendNANA
11:00 -6.7 -14.6 54   29 28 24.1 101.86   -15 Mainly Clear
12:00 -6.6 -15.9 48   30 30 24.1 101.90   -15 LegendNANA
13:00 -6.3 -15.4 49   31 21 24.1 101.91   -13 LegendNANA
14:00 -6.7 -16.9 44   30 27 24.1 101.96   -15 Clear
15:00 -6.4 -17.5 41   29 28 24.1 102.03   -15 LegendNANA
16:00 -6.8 -17.3 44   30 19 24.1 102.08   -14 LegendNANA
17:00 -7.8 -16.6 49   29 18 24.1 102.21   -15 Clear
18:00 -8.4 -16.3 53   29 10 24.1 102.31   -13 LegendNANA
19:00 -8.6 -16.3 54   30 11 24.1 102.39   -14 LegendNANA
20:00 -9.7 -15.8 61   29 7 24.1 102.43   -14 Clear
21:00 -12.2 -14.9 80   36 1 24.1 102.51   -13 LegendNANA
22:00 -12.4 -14.0 88   5 4 24.1 102.52   -15 LegendNANA
23:00 -11.8 -13.4 88   22 3 24.1 102.55   -14 Mostly Cloudy

Notes on Data Quality.

Legend

  • E = Estimated
  • M = Missing
  • NA = Not Available*
  • [empty] = Indicates an unobserved value
Date modified: